[[{"header":{"parameterUnit":"m.s-1","parameterCategory":1,"la1":30.2991,"la2":30.254,"lo1":-89.0895,"lo2":-89.0444,"dy":0.0017,"dx":0.0017,"nx":28,"ny":28,"refTime":"2024-05-13T03:00:00:Z","depth":0,"parameterNumber":2,"parameterNumberName":"U-component_of_WINDS"},"data":[0,0,0,0,0,0,0,0,0,0,0,0,0,0,0,0,0,0,0,0,0,0,0,0,0,0,0,0,0,0,0,0,0,0,0,0,0,0,0,0,0,0,0,0,0,0,0,0,0,0,0,0,0,0,0,0,0,0,-0.3569,-0.357,0,-0.3665,-0.3666,-0.3668,-0.3715,-0.3715,-0.3715,-0.3715,-0.3825,-0.3828,-0.3831,0,0,0,0,0,0,0,0,0,0,0,0,0,-0.3436,-0.3438,-0.3569,-0.357,-0.3571,-0.3665,-0.3666,-0.3668,-0.3716,-0.3715,-0.3715,-0.3715,-0.3824,-0.3828,-0.3831,0,0,0,0,0,0,0,0,0,0,0,0,0,-0.3509,-0.3438,-0.3569,-0.3606,-0.3611,-0.3665,-0.3666,-0.3668,-0.3716,-0.3715,-0.3715,-0.3715,-0.3823,-0.3827,-0.3832,-0.386,0,0,-0.3845,-0.3847,0,0,0,0,0,0,0,0,-0.3505,-0.3514,-0.36,-0.3604,-0.3609,-0.3678,-0.366,-0.3733,-0.3716,-0.3676,-0.3715,-0.3715,-0.3777,-0.3785,-0.3804,-0.3865,-0.387,-0.3846,-0.3848,-0.385,-0.3852,0,0,0,0,0,0,0,-0.35,-0.351,-0.3608,-0.3601,-0.3606,-0.3621,-0.3632,-0.3674,-0.3726,-0.3679,-0.3683,-0.3693,-0.378,-0.3799,-0.3807,-0.3871,-0.3846,-0.385,-0.3852,-0.3854,-0.3958,-0.3959,0,0,0,0,0,0,-0.3487,-0.3506,-0.3604,-0.361,-0.3555,-0.3624,-0.3635,-0.3656,-0.3726,-0.3736,-0.3693,-0.3695,-0.3792,-0.3802,-0.3811,-0.3846,-0.385,-0.3854,-0.3857,-0.3958,-0.3958,-0.3959,0,0,0,0,0,0,-0.3484,-0.3495,-0.3601,-0.3559,-0.3573,-0.3626,-0.3649,-0.3658,-0.3678,-0.3736,-0.3746,-0.3703,-0.3792,-0.3805,-0.3846,-0.3851,-0.3856,-0.386,-0.3958,-0.3958,-0.3959,-0.3919,0,0,0,0,0,0,-0.348,-0.3494,-0.3503,-0.3559,-0.3575,-0.3631,-0.3649,-0.366,-0.3684,-0.3687,-0.3748,-0.3758,-0.3793,-0.3839,-0.385,-0.3857,-0.3864,-0.3958,-0.3958,-0.3958,-0.392,-0.3917,-0.3915,0,0,0,0,0,-0.3475,-0.3491,-0.3503,-0.3515,-0.3587,-0.3631,-0.3641,-0.3678,-0.3684,-0.3695,-0.3732,-0.3756,-0.3848,-0.3843,-0.3856,-0.3864,-0.3958,-0.3958,-0.3958,-0.3921,-0.3918,-0.3916,0,0,0,0,0,0,-0.344,-0.3499,-0.3514,-0.3547,-0.3583,-0.3639,-0.3654,-0.3674,-0.3713,-0.3715,-0.3762,-0.3776,-0.3812,-0.3843,-0.3836,-0.3894,-0.3906,-0.3909,-0.3873,-0.387,-0.3868,-0.386,-0.3868,0,0,0,0,0,-0.3435,-0.3462,-0.3515,-0.354,-0.3556,-0.3601,-0.3622,-0.3647,-0.3688,-0.3705,-0.3745,-0.3787,-0.3825,-0.385,-0.3888,-0.3924,-0.3938,-0.3937,-0.3934,-0.3932,-0.3934,-0.3955,-0.3954,-0.396,-0.396,-0.3959,0,0,-0.3427,-0.3463,-0.3479,-0.3533,-0.3564,-0.3594,-0.3615,-0.3646,-0.3669,-0.3711,-0.3751,-0.3782,-0.3832,-0.3869,-0.3889,-0.3896,-0.3936,-0.3933,-0.393,-0.3934,-0.3955,-0.3954,-0.3954,-0.396,-0.396,-0.396,0,0,-0.3428,-0.3457,-0.348,-0.3509,-0.3554,-0.3584,-0.3589,-0.3641,-0.3662,-0.3702,-0.3733,-0.3763,-0.3828,-0.3861,-0.3887,-0.3897,-0.3921,-0.3909,-0.3898,-0.3917,-0.3916,-0.3916,-0.3919,-0.3919,-0.3911,-0.3911,-0.391,0,-0.3413,-0.3456,-0.3491,-0.3518,-0.3542,-0.3576,-0.36,-0.3629,-0.3685,-0.3702,-0.3708,-0.3789,-0.3825,-0.3871,-0.3872,-0.3892,-0.3901,-0.3902,-0.3913,-0.3913,-0.3914,-0.3917,-0.3918,-0.3909,-0.3909,-0.3909,-0.3909,0,-0.3436,-0.3465,-0.3479,-0.3527,-0.3552,-0.3579,-0.3619,-0.3641,-0.3663,-0.3692,-0.3732,-0.3776,-0.3823,-0.3836,-0.3861,-0.3885,-0.3888,-0.3903,-0.3916,-0.391,-0.3914,-0.3916,-0.3906,-0.3907,-0.3907,-0.3908,0,0,-0.3419,-0.3482,-0.3487,-0.3508,-0.3559,-0.3584,-0.3612,-0.3653,-0.3671,-0.3709,-0.3734,-0.3787,-0.38,-0.3829,-0.3857,-0.3874,-0.3877,-0.3887,-0.3889,-0.3883,-0.3906,-0.3894,-0.3894,-0.3893,-0.3893,-0.3893,-0.3902,0,-0.3426,-0.3473,-0.3504,-0.3541,-0.3568,-0.36,-0.3625,-0.366,-0.3688,-0.3717,-0.375,-0.3786,-0.3801,-0.3818,-0.3836,-0.3872,-0.3882,-0.3873,-0.3919,-0.392,-0.3904,-0.3897,-0.3884,-0.389,-0.3903,-0.3904,-0.3904,0,-0.3441,-0.3472,-0.351,-0.3554,-0.3567,-0.3588,-0.3628,-0.3655,-0.3696,-0.3715,-0.3745,-0.3772,-0.3806,-0.3814,-0.3861,-0.3854,-0.3875,-0.3896,-0.3897,-0.3903,-0.3911,-0.3902,-0.3893,-0.3893,-0.3907,-0.3907,-0.3906,0,-0.3423,-0.3475,-0.3504,-0.3521,-0.3575,-0.3589,-0.3612,-0.3652,-0.3675,-0.3711,-0.3726,-0.3766,-0.3789,-0.3821,-0.3859,-0.3862,-0.3902,-0.3915,-0.392,-0.3919,-0.3928,-0.3927,-0.3921,-0.3942,-0.3942,-0.3942,-0.3942,0,-0.3427,-0.3449,-0.3496,-0.3513,-0.3539,-0.3575,-0.36,-0.3627,-0.3662,-0.3687,-0.3719,-0.3743,-0.3792,-0.3822,-0.3853,-0.3887,-0.3897,-0.3915,-0.3923,-0.3912,-0.3909,-0.3926,-0.3927,-0.3942,-0.3942,-0.3942,-0.3942,0,-0.3412,-0.3444,-0.3477,-0.3523,-0.3535,-0.3552,-0.3593,-0.3613,-0.3641,-0.3672,-0.3682,-0.3728,-0.3765,-0.3805,-0.3858,-0.3879,-0.391,-0.3922,-0.3895,-0.3899,-0.3902,-0.3901,-0.3908,-0.391,-0.3928,-0.3928,-0.3928,0,-0.3412,-0.3429,-0.3475,-0.3492,-0.3513,-0.3541,-0.3562,-0.3599,-0.362,-0.3666,-0.368,-0.3718,-0.3751,-0.3809,-0.3849,-0.3889,-0.3902,-0.3901,-0.3908,-0.3896,-0.3901,-0.3899,-0.3901,-0.3899,-0.3899,-0.3898,-0.3898,0,-0.341,-0.3423,-0.3451,-0.3483,-0.3507,-0.3535,-0.3566,-0.3579,-0.3621,-0.3644,-0.368,-0.3704,-0.3755,-0.3793,-0.3837,-0.3865,-0.3889,-0.3895,-0.3898,-0.3887,-0.387,-0.3878,-0.3888,-0.3895,-0.3895,-0.3896,-0.3896,-0.3896,-0.3402,-0.3417,-0.3451,-0.348,-0.3505,-0.3532,-0.3551,-0.358,-0.3609,-0.365,-0.367,-0.3706,-0.3746,-0.3806,-0.3833,-0.3863,-0.3871,-0.3876,-0.3877,-0.3878,-0.3874,-0.3865,-0.3871,-0.3872,-0.3872,-0.3872,-0.3872,0,-0.34,-0.3422,-0.3448,-0.3487,-0.351,-0.3526,-0.3559,-0.3578,-0.3607,-0.364,-0.367,-0.371,-0.3747,-0.3788,-0.3827,-0.3843,-0.3855,-0.3853,-0.3852,-0.3858,-0.3865,-0.3858,-0.3842,-0.3842,-0.3842,-0.3842,-0.3842,-0.3842,-0.3402,-0.3428,-0.3445,-0.3484,-0.3508,-0.3539,-0.3556,-0.3582,-0.3607,-0.3649,-0.3678,-0.3703,-0.374,-0.3781,-0.3816,-0.3827,-0.384,-0.3834,-0.3849,-0.3855,-0.3857,-0.386,-0.3853,-0.3836,-0.3836,-0.3838,-0.3838,-0.3838]},{"header":{"parameterUnit":"m.s-1","parameterCategory":1,"la1":30.2991,"la2":30.254,"lo1":-89.0895,"lo2":-89.0444,"dy":0.0017,"dx":0.0017,"nx":28,"ny":28,"refTime":"2024-05-13T03:00:00:Z","depth":0,"parameterNumber":3,"parameterNumberName":"V-component_of_WINDS"},"data":[0,0,0,0,0,0,0,0,0,0,0,0,0,0,0,0,0,0,0,0,0,0,0,0,0,0,0,0,0,0,0,0,0,0,0,0,0,0,0,0,0,0,0,0,0,0,0,0,0,0,0,0,0,0,0,0,0,0,4.3533,4.3531,0,4.33,4.3298,4.3295,4.3192,4.3192,4.3192,4.3193,4.2938,4.2931,4.2924,0,0,0,0,0,0,0,0,0,0,0,0,0,4.3873,4.3868,4.3533,4.353,4.3528,4.3301,4.3298,4.3294,4.3192,4.3192,4.3193,4.3193,4.294,4.2932,4.2923,0,0,0,0,0,0,0,0,0,0,0,0,0,4.3691,4.3866,4.3534,4.3449,4.344,4.3302,4.3298,4.3294,4.3192,4.3192,4.3193,4.3193,4.2943,4.2933,4.2922,4.2846,0,0,4.2889,4.2885,0,0,0,0,0,0,0,0,4.3702,4.3679,4.3465,4.3455,4.3444,4.3276,4.3324,4.3143,4.3191,4.3285,4.3193,4.3193,4.3049,4.303,4.2984,4.2834,4.2823,4.2889,4.2882,4.2877,4.2874,0,0,0,0,0,0,0,4.3715,4.3688,4.3441,4.3462,4.3449,4.3418,4.3393,4.3289,4.3166,4.3277,4.3269,4.3244,4.3043,4.2995,4.2977,4.2819,4.2889,4.2879,4.2873,4.2869,4.2593,4.2592,0,0,0,0,0,0,4.3743,4.37,4.3448,4.3434,4.3577,4.3412,4.3383,4.3329,4.3167,4.3143,4.3244,4.324,4.3013,4.299,4.2968,4.2867,4.2878,4.2868,4.2861,4.2594,4.2593,4.2592,0,0,0,0,0,0,4.3751,4.3722,4.3457,4.3564,4.3529,4.3405,4.3345,4.3324,4.3276,4.3142,4.3118,4.3218,4.3012,4.2983,4.2878,4.2857,4.2863,4.2853,4.2595,4.2593,4.2592,4.2666,0,0,0,0,0,0,4.3761,4.3725,4.3699,4.3565,4.3523,4.3376,4.3344,4.3319,4.326,4.3253,4.3112,4.3089,4.301,4.2894,4.2867,4.2842,4.2845,4.2596,4.2594,4.2593,4.2665,4.2667,4.267,0,0,0,0,0,4.3774,4.3725,4.3698,4.3668,4.3488,4.3375,4.335,4.3266,4.3259,4.3228,4.3142,4.3093,4.2865,4.2885,4.2853,4.2825,4.2597,4.2595,4.2593,4.2664,4.2667,4.2669,0,0,0,0,0,0,4.3852,4.3706,4.3674,4.3581,4.3493,4.3358,4.3317,4.3272,4.3179,4.3175,4.307,4.3039,4.2942,4.2872,4.2898,4.2742,4.2726,4.2718,4.2791,4.2793,4.2795,4.2812,4.2836,0,0,0,0,0,4.3861,4.3787,4.366,4.359,4.3548,4.3441,4.3388,4.3332,4.3232,4.3192,4.3099,4.3,4.2906,4.2845,4.2751,4.2655,4.2621,4.262,4.2622,4.2625,4.2618,4.256,4.2558,4.2585,4.2585,4.2585,0,0,4.3873,4.3784,4.3742,4.3604,4.3528,4.3449,4.3409,4.3326,4.3265,4.3178,4.3074,4.3003,4.2885,4.2784,4.2735,4.2723,4.2603,4.2622,4.2625,4.2616,4.2558,4.2556,4.2553,4.2583,4.2584,4.2584,0,0,4.3856,4.3783,4.3717,4.3644,4.3532,4.3461,4.3446,4.3319,4.3269,4.3166,4.3098,4.3021,4.2862,4.2781,4.2719,4.2675,4.2625,4.2647,4.2657,4.2603,4.2601,4.2598,4.2581,4.2576,4.2641,4.2641,4.2641,0,4.3885,4.3768,4.3687,4.361,4.3549,4.3474,4.3403,4.3334,4.3195,4.3152,4.3143,4.2943,4.2858,4.2737,4.2727,4.268,4.2655,4.2661,4.2609,4.2605,4.2602,4.2584,4.2577,4.2644,4.2644,4.2643,4.2643,0,4.3808,4.3728,4.3687,4.3562,4.3497,4.3423,4.3327,4.327,4.322,4.3149,4.3043,4.294,4.2823,4.2791,4.2738,4.2662,4.2658,4.263,4.2612,4.2604,4.2585,4.2577,4.2649,4.2648,4.2647,4.2646,0,0,4.3831,4.3666,4.3651,4.3594,4.3466,4.34,4.3322,4.3214,4.3167,4.3073,4.3002,4.2871,4.2845,4.2775,4.2713,4.2666,4.2635,4.2643,4.2638,4.2643,4.2542,4.2563,4.2557,4.2603,4.2602,4.26,4.2552,0,4.3795,4.3658,4.3584,4.3476,4.3399,4.3327,4.3259,4.317,4.3103,4.3024,4.2946,4.2855,4.2829,4.2786,4.2736,4.265,4.2613,4.2653,4.2531,4.2528,4.2562,4.2547,4.2568,4.2527,4.2544,4.2543,4.2542,0,4.3734,4.365,4.3536,4.3419,4.3384,4.3324,4.322,4.3147,4.3044,4.2998,4.2923,4.2862,4.2772,4.2764,4.2636,4.2665,4.2611,4.2561,4.2557,4.254,4.2533,4.2527,4.2512,4.2505,4.253,4.2531,4.2531,0,4.3761,4.3617,4.3531,4.3484,4.3345,4.3305,4.3244,4.3143,4.3083,4.299,4.295,4.2846,4.2788,4.2707,4.2618,4.262,4.2499,4.2483,4.2454,4.2456,4.2429,4.2431,4.2403,4.2399,4.2399,4.2399,4.2399,0,4.3728,4.366,4.3542,4.3488,4.341,4.3323,4.3246,4.3179,4.309,4.3018,4.2948,4.2881,4.277,4.2688,4.2618,4.2522,4.2496,4.2453,4.2435,4.2458,4.2464,4.2419,4.2419,4.2397,4.2398,4.2398,4.2398,0,4.3742,4.3661,4.3562,4.3441,4.3409,4.3356,4.325,4.3192,4.3123,4.3034,4.3007,4.2896,4.2796,4.2702,4.2566,4.2519,4.2422,4.2399,4.2459,4.2448,4.2424,4.2427,4.2364,4.235,4.2359,4.2359,4.2359,0,4.3725,4.3673,4.3548,4.3499,4.3442,4.3362,4.3302,4.3215,4.3154,4.3035,4.2992,4.2889,4.2801,4.2644,4.2548,4.2444,4.2416,4.2402,4.24,4.2425,4.2413,4.2417,4.241,4.2403,4.2403,4.2403,4.2404,0,4.3703,4.3667,4.3587,4.3493,4.3426,4.3347,4.3264,4.3226,4.3121,4.3057,4.2958,4.2891,4.2756,4.2653,4.2539,4.247,4.2417,4.2406,4.2393,4.2415,4.2451,4.2429,4.2462,4.2407,4.2406,4.2406,4.2406,4.2406,4.3699,4.365,4.3556,4.3469,4.3399,4.3325,4.3266,4.3192,4.3109,4.2997,4.2949,4.2848,4.2745,4.2588,4.252,4.2437,4.2424,4.2406,4.2401,4.2397,4.2402,4.2468,4.2415,4.2415,4.2415,4.2415,4.2414,0,4.3672,4.3609,4.3531,4.3421,4.3352,4.3317,4.3224,4.3167,4.3082,4.2993,4.2911,4.2796,4.2696,4.2594,4.2488,4.244,4.2414,4.2415,4.2416,4.24,4.242,4.2441,4.2438,4.2438,4.2439,4.2439,4.2439,4.2439,4.3649,4.3564,4.3516,4.3394,4.3329,4.3235,4.3185,4.3114,4.3044,4.2921,4.284,4.2777,4.2682,4.2568,4.2474,4.2446,4.2408,4.2416,4.2381,4.24,4.2399,4.2398,4.2417,4.241,4.241,4.2368,4.2368,4.2368]}]]